AEROCUBE 6A

Last updated on Wed Oct 29 2025 00:03:53 GMT+0000 (Coordinated Universal Time)

1 40045U 14033AM 25301.39748236 .00009043 00000+0 83077-3 0 9990 2 40045 97.7042 106.6842 0042107 71.4975 289.0814 14.94355705611955
UTC large
Height (km)
Speed (km/s)
/
Latitude / Longitude
Inclination (degrees)
Orbital Period (minutes)
Azimuth
Elevation
Range (km)
Doppler Factor

Next 0 passes for location: London (51.5072 / 0.1276)

Sorry there are no passes over London.